This is the latest recevied weather packets stored in our database for station/object KJ6APE. If no packets are shown the sender has not sent any weather packets the latest 10 day(s).
| Time | Temp. | Humidity | Pressure | Rain* | Wind** | Luminosity | Snow |
|---|---|---|---|---|---|---|---|
| 1777823331 | 15° C | 68% | 1012.8 hPa | 0 mm | - | 305 W/m² | - |
| 1777823029 | 15° C | 68% | 1012.8 hPa | 0 mm | - | 295 W/m² | - |
| 1777822727 | 15° C | 69% | 1012.8 hPa | 0 mm | - | 239 W/m² | - |
| 1777822425 | 15° C | 70% | 1012.7 hPa | 0 mm | - | 226 W/m² | - |
| 1777822122 | 14.44° C | 71% | 1012.9 hPa | 0 mm | - | 246 W/m² | - |
| 1777821819 | 14.44° C | 72% | 1012.9 hPa | 0 mm | - | 204 W/m² | - |
| 1777821516 | 13.89° C | 72% | 1012.8 hPa | 0 mm | - | 160 W/m² | - |
| 1777821214 | 13.89° C | 73% | 1012.7 hPa | 0 mm | - | 146 W/m² | - |
| 1777820911 | 13.89° C | 74% | 1012.8 hPa | 0 mm | - | 142 W/m² | - |
| 1777820607 | 13.89° C | 74% | 1012.8 hPa | 0 mm | - | 135 W/m² | - |
| 1777820304 | 13.89° C | 74% | 1012.6 hPa | 0 mm | - | 108 W/m² | - |
| 1777820002 | 13.89° C | 74% | 1012.6 hPa | 0 mm | - | 88 W/m² | - |
| 1777819698 | 13.89° C | 74% | 1012.5 hPa | 0 mm | - | 88 W/m² | - |
| 1777819397 | 13.33° C | 74% | 1012.5 hPa | 0 mm | - | 108 W/m² | - |
| 1777819094 | 13.33° C | 75% | 1012.3 hPa | 0 mm | - | 106 W/m² | - |
| 1777818790 | 13.33° C | 75% | 1012.6 hPa | 0 mm | - | 85 W/m² | - |
| 1777818486 | 13.33° C | 75% | 1012.3 hPa | 0 mm | - | 78 W/m² | - |
| 1777818183 | 13.33° C | 75% | 1012.4 hPa | 0 mm | - | 78 W/m² | - |
| 1777817880 | 13.33° C | 76% | 1012.1 hPa | 0 mm | - | 68 W/m² | - |
| 1777817578 | 13.33° C | 75% | 1012.2 hPa | 0 mm | - | 55 W/m² | - |
| 1777817274 | 13.33° C | 75% | 1011.9 hPa | 0 mm | - | 44 W/m² | - |
| 1777816971 | 13.33° C | 76% | 1012 hPa | 0 mm | - | 40 W/m² | - |
| 1777816667 | 13.33° C | 76% | 1011.9 hPa | 0 mm | - | 36 W/m² | - |
| 1777816364 | 12.78° C | 75% | 1011.9 hPa | 0 mm | - | 27 W/m² | - |
| 1777816062 | 12.78° C | 76% | 1011.8 hPa | 0 mm | - | 20 W/m² | - |
* Rain latest hour (hover to see other rain measurements)
** Current wind speed in m/s (hover to see current wind gust speed)